Location: A�t �Alizem
(31.2076°N, 8.7872°W)
Time: 05:22:30
(UTC+00:00)

COSMO-SKYMED 1 - Pass Details

Date: 27 November 2020
Orbit: 621 x 623 km, 97.9° (Epoch: 25 January)

Event Time Altitude Azimuth Distance (km) Brightness Sun altitude
Rises 17:49:27 0° 27° (NNE) 2,906 5.5 -4.1°
Reaches altitude 10° 17:51:59 10° 41° (NE) 1,995 4.6 -4.6°
Maximum altitude 17:55:33 25° 97° (E) 1,271 3.7 -5.3°
Drops below altitude 10° 17:59:06 10° 152° (SSE) 1,984 5.1 -6.0°
Sets 18:01:36 0° 166° (SSE) 2,886 6.1 -6.5°
